User: anonymous   Login
Location: Unspecified
(0.0000°N, 0.0000°E)
Time: 11:14:09
(UTC+01:00)
Language:

NATO 3D Rocket - Orbit

View from above orbital plane
View from above orbital plane
View from above satellite
View from above satellite

Ground track
Ground track

The orbit data is extracted from the following two-line orbital elements,

1 15392U 84115B   17080.20483584 +.00000185 +00000-0 +37017-4 0  9995
2 15392 021.4937 353.1830 1034198 025.7742 339.0721 12.45541759455242
Epoch (UTC): 21 March 2017 04:54:57
Eccentricity: 0.1034198
inclination: 21.4937°
perigee height: 670 km
apogee height: 2296 km
right ascension of ascending node: 353.1830°
argument of perigee: 25.7742°
revolutions per day: 12.45541759
mean anomaly at epoch: 339.0721°
orbit number at epoch: 45524

The dashed part of the orbit path shows where the satellite is in the earth's shadow,  

DLR